Morehead City, NC (28557)

9:24 PM EDT on July 20, 2017 (GMT -0400)
Bridges st. | | Change Station
Active Advisory: Beach Hazard Statement

Elev 16 ft 34.72 °N, 76.73 °W | Updated 1 second ago

Clear
Clear
81.7 °F
Feels Like 88 °F
N
0.0
Wind Variable Wind from SW
Gusts 0.0 mph

Today
High -- | Low -- °F
--% Chance of Precip.
Yesterday
High -- | Low -- °F
Precip. -- in
Pressure 30.01 in
Visibility 10.0 miles
Clouds Clear
Heat Index 88 °F
Dew Point 75 °F
Humidity 81%
Rainfall 0.00 in
Snow Depth Not available.
6:08 AM 8:17 PM
Waning Crescent, 8% visible
METAR KMRH 210058Z AUTO 20008KT 10SM CLR 27/24 A3000 RMK AO2 SLP160 T02720244 TSNO
Pressure 30.01 in
Visibility 10.0 miles
Clouds Clear
Heat Index 88 °F
Dew Point 75 °F
Humidity 81%
Rainfall 0.00 in
Snow Depth Not available.
6:08 AM 8:17 PM
Waning Crescent, 8% visible
METAR KMRH 210058Z AUTO 20008KT 10SM CLR 27/24 A3000 RMK AO2 SLP160 T02720244 TSNO

Get Your Daily Forecast Email!

Thanks for signing up!

Be on the lookout for a verification email in your inbox.

You'll start receiving severe weather alerts in your inbox..

×

10-Day Weather Forecast

Almanac

Astronomy

Jul. 20, 2017 Rise Set
Actual Time
Civil Twilight
Nautical Twilight
Astronomical Twilight
Moon
Length of Visible Light
Length of Day
Tomorrow will be .
, % of the Moon is Illuminated

Today's Extremes

State Highs State Lows

Community

WunderPhotos

Category 6

Welcome to Category 6. This is the collective home for Weather Underground's featured writeups by Dr. Jeff Masters (right), Bob Henson (left), Chris Burt, and other regular contributors.

Nearby

Air Quality

  Air Quality AQ Index Pollutant
Not available.

Snow Depth

Station Depth Elevation

Earthquake Activity

City Distance Mag. Time & Date
Minimum magnitude displayed is 2.5.

Coastal Water Temperatures

Place Temperature

Stations

Nearby Weather Stations

Station Location Temp. Windchill Dew Point Humidity Wind Precip. Elev Updated Type
                   

Watches & Warnings

Beach Hazard Statement
Issued: 8:02 PM EDT Jul. 20, 2017 – National Weather Service

... Beach hazards statement in effect from Friday morning through
Friday evening...

The National Weather Service in Newport/Morehead City has issued
a beach hazards statement, which is in effect from Friday morning
through Friday evening.

* Hazards... high threat of rip currents.

* Location... from Rodanthe to Cape Lookout.

* Timing and tides... the most likely time for strong rip
currents to occur is a couple hours either side of low tide,
which will occur around 3 PM today.

Precautionary/preparedness actions...

If caught in a rip current remain calm. Don't fight the current.
Swim in a direction following the shoreline. When out of the
current, swim back to shore. If tired, float or tread water until
out of the rip current. If unable to escape, face the shore and
call or wave for help.